This demonstration page uses our WeatherBlox Daily Observations layout. Learn more.

Left ArrowRight Arrow

39.12711, -84.51439

Hourly Observations for July 1, 2015

Temp ( °F °C ) Dew Point ( °F °C ) Humidity (%) Winds ( mph kmh ) Pressure ( in mb ) Visibility ( mi km ) Precip ( " mm )
1:53 am 01:53 Mostly Clear 63 17.2 58 14.4 84 84 S 3 6 29.88 1012 7 11 0.00 0.00
2:53 am 02:53 Clear with Mist and Fog 61 16.1 57 13.9 87 87 N 3 6 29.88 1012 4 6 0.00 0.00
3:11 am 03:11 Clear with Mist and Fog 61 16.1 57 13.9 87 87 NE 5 7 29.88 1012 2 3 0.00 0.00
3:16 am 03:16 Mostly Cloudy with Mist and Fog 61 16 55 13 83 83 NNE 6 9 29.88 1012 1 1 0.00 0.00
3:24 am 03:24 Mostly Clear with Mist and Fog 61 16 57 14 88 88 NE 3 6 29.88 1012 1 2 0.00 0.00
3:46 am 03:46 Clear with Mist and Fog 61 16 55 13 83 83 Calm 29.88 1012 2 3 0.00 0.00
3:53 am 03:53 Clear with Mist and Fog 59 15 56 13.3 90 90 Calm 29.88 1012 2 3 0.00 0.00
3:58 am 03:58 Mostly Cloudy with Mist and Fog 61 16 55 13 83 83 Calm 29.88 1012 1 2 0.00 0.00
4:11 am 04:11 Mostly Cloudy with Fog 58 14.4 55 12.8 90 90 Calm 29.88 1012 0 0 0.00 0.00
4:32 am 04:32 Mostly Cloudy with Mist and Fog 59 15 55 13 88 88 SSW 3 6 29.88 1012 1 1 0.00 0.00
4:53 am 04:53 Mostly Cloudy with Fog 58 14.4 58 14.4 100 100 Calm 29.89 1012 0 0 0.00 0.00
4:58 am 04:58 Mostly Cloudy with Fog 57 14 57 14 100 100 Calm 29.91 1013 1 1 0.00 0.00
5:09 am 05:09 Mostly Cloudy with Mist and Fog 59 15 59 15 100 100 Calm 29.91 1013 1 1 0.00 0.00
5:18 am 05:18 Mostly Cloudy with Fog 59 15 59 15 100 100 Calm 29.91 1013 0 0 0.00 0.00
5:37 am 05:37 Mostly Cloudy with Fog 58 14.4 58 14.4 100 100 Calm 29.91 1013 0 0 0.00 0.00
5:53 am 05:53 Mostly Cloudy with Fog 58 14.4 58 14.4 100 100 Calm 29.90 1012 0 0 0.00 0.00
6:19 am 06:19 Mostly Cloudy with Fog 58 14.4 58 14.4 100 100 Calm 29.91 1013 0 0 0.00 0.00
6:53 am 06:53 Mostly Cloudy with Fog 59 15 59 15 100 100 Calm 29.90 1013 1 1 0.00 0.00
7:12 am 07:12 Cloudy with Mist and Fog 61 16 61 16 100 100 Calm 29.91 1013 3 4 0.00 0.00
7:53 am 07:53 Cloudy with Mist and Fog 62 16.7 62 16.7 100 100 Calm 29.91 1013 2 3 0.00 0.00
7:58 am 07:58 Cloudy with Mist and Fog 63 17 63 17 100 100 Calm 29.91 1013 1 1 0.00 0.00
8:16 am 08:16 Mostly Cloudy with Fog 63 17 63 17 100 100 Calm 29.91 1013 0 0 0.00 0.00
8:53 am 08:53 Mostly Cloudy with Fog 63 17.2 63 17.2 100 100 Calm 29.93 1013 0 0 0.00 0.00
9:16 am 09:16 Mostly Cloudy with Mist and Fog 64 18 64 18 100 100 Calm 29.91 1013 1 2 0.00 0.00
9:23 am 09:23 Cloudy with Mist and Fog 65 18.3 64 17.8 97 97 S 3 6 29.91 1013 3 5 0.00 0.00
9:41 am 09:41 Partly Cloudy with Mist and Fog 66 18.9 64 17.8 93 93 Calm 29.91 1013 6 10 0.00 0.00
9:53 am 09:53 Sunny 66 18.9 64 17.8 93 93 Calm 29.96 1014 7 11 0.00 0.00
10:53 am 10:53 Sunny 71 21.7 63 17.2 76 76 SSE 3 6 29.93 1014 10 16 0.00 0.00
11:53 am 11:53 Sunny 74 23.3 63 17.2 69 69 VRB 3 6 29.95 1014 10 16 0.00 0.00
12:53 pm 12:53 Mostly Cloudy 77 25 63 17.2 62 62 S 5 7 29.94 1014 10 16 0.00 0.00
1:53 pm 13:53 Partly Cloudy 77 25 64 17.8 64 64 SSW 7 11 29.93 1013 10 16 0.00 0.00
2:53 pm 14:53 Mostly Sunny 78 25.6 63 17.2 60 60 SSW 6 9 29.91 1013 10 16 0.00 0.00
3:53 pm 15:53 Mostly Sunny 80 26.7 60 15.6 51 51 VRB 6 9 29.90 1013 10 16 0.00 0.00
4:53 pm 16:53 Sunny 79 26.1 60 15.6 52 52 WSW 3 6 29.89 1012 10 16 0.00 0.00
5:53 pm 17:53 Mostly Sunny 79 26.1 59 15 50 50 Calm 29.88 1012 10 16 0.00 0.00
6:53 pm 18:53 Partly Cloudy 77 25 63 17.2 62 62 Calm 29.88 1012 10 16 0.00 0.00
7:53 pm 19:53 Mostly Sunny 66 19 61 16 83 83 WSW 3 6 29.83 1010 9 14 0.00 0.00
8:53 pm 20:53 Mostly Cloudy 70 21.1 67 19.4 90 90 Calm 29.90 1013 9 14 0.00 0.00
9:53 pm 21:53 Partly Cloudy with Light Rain 67 19.4 64 17.8 91 91 Calm 29.91 1013 10 16 0.00 0.03
10:53 pm 22:53 Mostly Cloudy 67 19.4 65 18.3 93 93 Calm 29.92 1013 10 16 0.00 0.03
11:53 pm 23:53 Cloudy 67 19.4 66 18.9 97 97 Calm 29.92 1013 9 14 0.00 0.00

Powered by AerisWeather